BEE334 EGAA-EGTE

Flight info

Callsign BEE334
Flight time 1h 9m
Altitude 23000
Route LISBO L603 PEPOD Q38 MALUD L15 RISLA N862 PACSE N92 EXMOR DCT TIVER
Aircraft DH8D/M-SDE2E3FGRY/H

Departure

Time 2026-04-21 07:08
Airport Belfast International Airport (EGAA)

Arrival

Time 2026-04-21 08:18
Airport Exeter International Airport (EGTE)
Time Latitude Longitude Altitude Speed Heading
2026-04-21 06:51 54.66094 -6.21493 276 ft 0 kts 334°
2026-04-21 06:57 54.66091 -6.21490 276 ft 3 kts 335°
2026-04-21 06:58 54.66066 -6.21472 276 ft 4 kts 338°
2026-04-21 06:58 54.66042 -6.21452 276 ft 4 kts 330°
2026-04-21 06:58 54.66019 -6.21429 276 ft 4 kts 330°
2026-04-21 06:58 54.65995 -6.21405 276 ft 4 kts 328°
2026-04-21 06:59 54.65979 -6.21387 276 ft 1 kts 324°
2026-04-21 06:59 54.65977 -6.21384 276 ft 0 kts 324°
2026-04-21 07:02 54.65976 -6.21383 276 ft 0 kts 324°
2026-04-21 07:02 54.65992 -6.21403 276 ft 4 kts 322°
2026-04-21 07:03 54.66005 -6.21460 276 ft 7 kts 262°
2026-04-21 07:03 54.65982 -6.21553 276 ft 11 kts 243°
2026-04-21 07:03 54.65937 -6.21688 276 ft 16 kts 235°
2026-04-21 07:03 54.65869 -6.21855 276 ft 17 kts 234°
2026-04-21 07:04 54.65820 -6.22004 276 ft 12 kts 244°
2026-04-21 07:04 54.65792 -6.22112 276 ft 10 kts 246°
2026-04-21 07:04 54.65770 -6.22242 276 ft 13 kts 262°
2026-04-21 07:04 54.65758 -6.22417 276 ft 16 kts 263°
2026-04-21 07:05 54.65747 -6.22616 276 ft 16 kts 266°
2026-04-21 07:05 54.65740 -6.22790 276 ft 14 kts 265°
2026-04-21 07:05 54.65707 -6.22922 276 ft 11 kts 232°
2026-04-21 07:05 54.65665 -6.23014 276 ft 9 kts 232°
2026-04-21 07:06 54.65629 -6.23095 276 ft 10 kts 231°
2026-04-21 07:06 54.65581 -6.23206 276 ft 14 kts 236°
2026-04-21 07:06 54.65520 -6.23330 276 ft 14 kts 212°
2026-04-21 07:06 54.65432 -6.23391 276 ft 14 kts 200°
2026-04-21 07:07 54.65371 -6.23396 276 ft 14 kts 161°
2026-04-21 07:07 54.65300 -6.23299 276 ft 14 kts 96°
2026-04-21 07:07 54.65302 -6.23256 276 ft 8 kts 78°
2026-04-21 07:07 54.65387 -6.22926 276 ft 66 kts 64°
2026-04-21 07:08 54.65691 -6.21823 278 ft 131 kts 63°
2026-04-21 07:08 54.66132 -6.20319 707 ft 146 kts 60°
2026-04-21 07:08 54.66495 -6.18595 1306 ft 154 kts 85°
2026-04-21 07:08 54.66168 -6.16749 1807 ft 169 kts 124°
2026-04-21 07:09 54.65169 -6.15572 2502 ft 177 kts 159°
2026-04-21 07:09 54.63915 -6.15451 3285 ft 180 kts 176°
2026-04-21 07:09 54.62662 -6.15562 4006 ft 179 kts 172°
2026-04-21 07:09 54.61432 -6.15364 4693 ft 180 kts 163°
2026-04-21 07:10 54.60209 -6.14865 5395 ft 182 kts 158°
2026-04-21 07:10 54.59013 -6.14201 6097 ft 183 kts 155°
2026-04-21 07:10 54.57811 -6.13417 6805 ft 185 kts 153°
2026-04-21 07:10 54.56611 -6.12539 7508 ft 188 kts 152°
2026-04-21 07:11 54.55407 -6.11573 8217 ft 190 kts 150°
2026-04-21 07:11 54.54213 -6.10545 8914 ft 193 kts 149°
2026-04-21 07:11 54.53056 -6.09395 9606 ft 193 kts 141°
2026-04-21 07:11 54.52058 -6.07823 10281 ft 196 kts 130°
2026-04-21 07:12 54.51128 -6.06014 10952 ft 199 kts 129°
2026-04-21 07:12 54.50222 -6.04194 11613 ft 202 kts 128°
2026-04-21 07:12 54.49312 -6.02342 12246 ft 204 kts 128°
2026-04-21 07:12 54.48390 -6.00451 12840 ft 207 kts 128°
2026-04-21 07:13 54.47473 -5.98561 13383 ft 210 kts 128°
2026-04-21 07:13 54.46529 -5.96613 13923 ft 212 kts 128°
2026-04-21 07:13 54.45519 -5.94526 14466 ft 215 kts 128°
2026-04-21 07:13 54.44598 -5.92627 14926 ft 217 kts 129°
2026-04-21 07:14 54.43621 -5.90615 15405 ft 219 kts 129°
2026-04-21 07:14 54.42652 -5.88620 15860 ft 221 kts 129°
2026-04-21 07:14 54.41654 -5.86567 16312 ft 223 kts 130°
2026-04-21 07:14 54.40668 -5.84531 16749 ft 225 kts 130°
2026-04-21 07:15 54.39663 -5.82463 17187 ft 226 kts 130°
2026-04-21 07:15 54.38662 -5.80414 17614 ft 226 kts 131°
2026-04-21 07:15 54.37651 -5.78350 18034 ft 227 kts 131°
2026-04-21 07:15 54.36641 -5.76290 18442 ft 227 kts 131°
2026-04-21 07:16 54.35623 -5.74214 18840 ft 228 kts 131°
2026-04-21 07:16 54.34597 -5.72118 19227 ft 229 kts 131°
2026-04-21 07:16 54.33558 -5.69997 19606 ft 230 kts 131°
2026-04-21 07:16 54.32530 -5.67906 19969 ft 231 kts 131°
2026-04-21 07:17 54.31503 -5.65818 20322 ft 232 kts 131°
2026-04-21 07:17 54.30472 -5.63728 20666 ft 233 kts 131°
2026-04-21 07:17 54.29470 -5.61692 20992 ft 234 kts 131°
2026-04-21 07:17 54.28425 -5.59564 21324 ft 235 kts 131°
2026-04-21 07:18 54.27387 -5.57453 21645 ft 236 kts 131°
2026-04-21 07:18 54.26390 -5.55332 21955 ft 237 kts 129°
2026-04-21 07:18 54.25431 -5.53134 22259 ft 238 kts 127°
2026-04-21 07:18 54.24483 -5.50869 22558 ft 239 kts 127°
2026-04-21 07:19 54.23555 -5.48608 22849 ft 240 kts 127°
2026-04-21 07:19 54.22622 -5.46333 23135 ft 240 kts 127°
2026-04-21 07:19 54.21643 -5.43966 23328 ft 248 kts 127°
2026-04-21 07:19 54.20641 -5.41571 23396 ft 259 kts 127°
2026-04-21 07:20 54.19614 -5.39139 23428 ft 270 kts 127°
2026-04-21 07:20 54.18529 -5.36577 23439 ft 280 kts 127°
2026-04-21 07:20 54.17428 -5.33992 23443 ft 290 kts 127°
2026-04-21 07:20 54.16299 -5.31338 23443 ft 298 kts 127°
2026-04-21 07:21 54.15121 -5.28573 23445 ft 306 kts 127°
2026-04-21 07:21 54.13907 -5.25721 23442 ft 313 kts 127°
2026-04-21 07:21 54.12683 -5.22851 23440 ft 320 kts 127°
2026-04-21 07:21 54.11406 -5.19854 23439 ft 326 kts 127°
2026-04-21 07:22 54.10155 -5.16921 23437 ft 331 kts 127°
2026-04-21 07:22 54.08923 -5.14039 23436 ft 335 kts 127°
2026-04-21 07:22 54.07651 -5.11064 23434 ft 339 kts 127°
2026-04-21 07:22 54.06340 -5.08006 23431 ft 342 kts 127°
2026-04-21 07:23 54.05021 -5.04928 23430 ft 345 kts 127°
2026-04-21 07:23 54.03729 -5.01921 23429 ft 348 kts 127°
2026-04-21 07:23 54.02418 -4.98869 23428 ft 350 kts 127°
2026-04-21 07:23 54.01068 -4.95723 23428 ft 352 kts 127°
2026-04-21 07:24 53.99701 -4.92545 23428 ft 353 kts 127°
2026-04-21 07:24 53.98399 -4.89473 23426 ft 356 kts 127°
2026-04-21 07:24 53.97088 -4.86361 23426 ft 358 kts 128°
2026-04-21 07:24 53.95741 -4.83291 23427 ft 360 kts 128°
2026-04-21 07:25 53.94303 -4.80050 23427 ft 362 kts 128°
2026-04-21 07:25 53.92891 -4.76854 23427 ft 364 kts 128°
2026-04-21 07:25 53.91485 -4.73644 23427 ft 365 kts 128°
2026-04-21 07:25 53.90035 -4.70309 23427 ft 366 kts 127°
2026-04-21 07:26 53.88679 -4.67183 23427 ft 367 kts 127°
2026-04-21 07:26 53.87265 -4.63927 23426 ft 368 kts 127°
2026-04-21 07:26 53.85822 -4.60616 23426 ft 368 kts 127°
2026-04-21 07:26 53.84358 -4.57266 23426 ft 369 kts 127°
2026-04-21 07:27 53.82896 -4.53928 23425 ft 369 kts 127°
2026-04-21 07:27 53.81477 -4.50695 23424 ft 369 kts 127°
2026-04-21 07:27 53.80044 -4.47434 23423 ft 369 kts 127°
2026-04-21 07:27 53.78628 -4.44216 23422 ft 370 kts 127°
2026-04-21 07:28 53.77198 -4.40964 23421 ft 370 kts 127°
2026-04-21 07:28 53.75748 -4.37677 23420 ft 370 kts 127°
2026-04-21 07:28 53.74305 -4.34405 23418 ft 370 kts 127°
2026-04-21 07:28 53.72888 -4.31194 23419 ft 370 kts 127°
2026-04-21 07:29 53.71384 -4.27796 23419 ft 370 kts 127°
2026-04-21 07:29 53.69837 -4.24303 23419 ft 370 kts 127°
2026-04-21 07:29 53.68376 -4.21009 23419 ft 370 kts 127°
2026-04-21 07:29 53.66846 -4.17562 23419 ft 370 kts 127°
2026-04-21 07:30 53.65314 -4.14117 23419 ft 370 kts 128°
2026-04-21 07:30 53.63769 -4.10648 23415 ft 370 kts 128°
2026-04-21 07:30 53.62263 -4.07275 23417 ft 367 kts 128°
2026-04-21 07:30 53.60763 -4.03917 23418 ft 364 kts 128°
2026-04-21 07:31 53.59269 -4.00577 23418 ft 361 kts 128°
2026-04-21 07:31 53.57773 -3.97239 23418 ft 359 kts 128°
2026-04-21 07:31 53.56292 -3.93947 23416 ft 356 kts 128°
2026-04-21 07:31 53.54822 -3.90673 23415 ft 354 kts 128°
2026-04-21 07:32 53.53372 -3.87446 23414 ft 353 kts 128°
2026-04-21 07:32 53.51914 -3.84201 23414 ft 351 kts 128°
2026-04-21 07:32 53.50453 -3.80955 23414 ft 350 kts 128°
2026-04-21 07:32 53.49009 -3.77755 23414 ft 349 kts 128°
2026-04-21 07:33 53.47606 -3.74651 23414 ft 348 kts 128°
2026-04-21 07:33 53.46240 -3.71634 23414 ft 348 kts 128°
2026-04-21 07:33 53.44879 -3.68630 23414 ft 347 kts 128°
2026-04-21 07:33 53.43468 -3.65521 23414 ft 347 kts 128°
2026-04-21 07:34 53.42103 -3.62518 23414 ft 347 kts 128°
2026-04-21 07:34 53.40697 -3.59463 23414 ft 346 kts 129°
2026-04-21 07:34 53.39706 -3.57435 23414 ft 346 kts 131°
2026-04-21 07:34 53.38142 -3.54415 23414 ft 346 kts 133°
2026-04-21 07:35 53.36008 -3.50473 23414 ft 346 kts 133°
2026-04-21 07:35 53.34943 -3.48523 23414 ft 346 kts 133°
2026-04-21 07:35 53.33445 -3.45760 23413 ft 346 kts 133°
2026-04-21 07:35 53.31889 -3.42846 23413 ft 347 kts 133°
2026-04-21 07:36 53.30325 -3.39884 23412 ft 347 kts 132°
2026-04-21 07:36 53.28755 -3.36891 23412 ft 347 kts 132°
2026-04-21 07:36 53.27247 -3.34014 23411 ft 348 kts 132°
2026-04-21 07:36 53.25733 -3.31131 23410 ft 348 kts 133°
2026-04-21 07:37 53.24153 -3.28137 23409 ft 348 kts 133°
2026-04-21 07:37 53.22636 -3.25272 23407 ft 349 kts 133°
2026-04-21 07:37 53.21069 -3.22320 23407 ft 349 kts 133°
2026-04-21 07:37 53.19512 -3.19393 23408 ft 349 kts 133°
2026-04-21 07:38 53.17928 -3.16413 23408 ft 350 kts 133°
2026-04-21 07:38 53.16314 -3.13378 23407 ft 350 kts 133°
2026-04-21 07:38 53.14706 -3.10360 23404 ft 350 kts 133°
2026-04-21 07:38 53.13088 -3.07329 23402 ft 351 kts 133°
2026-04-21 07:39 53.11490 -3.04339 23402 ft 351 kts 133°
2026-04-21 07:39 53.09949 -3.01460 23402 ft 351 kts 133°
2026-04-21 07:39 53.08342 -2.98459 23401 ft 351 kts 133°
2026-04-21 07:39 53.07823 -2.97488 23401 ft 351 kts 133°
2026-04-21 07:40 53.06463 -2.94946 23402 ft 352 kts 133°
2026-04-21 07:40 53.04789 -2.92024 23401 ft 351 kts 140°
2026-04-21 07:40 53.02771 -2.89861 23401 ft 347 kts 160°
2026-04-21 07:40 53.00500 -2.88955 23406 ft 342 kts 178°
2026-04-21 07:41 52.98177 -2.88931 23407 ft 339 kts 186°
2026-04-21 07:41 52.95871 -2.89201 23405 ft 339 kts 188°
2026-04-21 07:41 52.93555 -2.89483 23405 ft 340 kts 187°
2026-04-21 07:41 52.91245 -2.89716 23404 ft 340 kts 187°
2026-04-21 07:42 52.88961 -2.89930 23404 ft 340 kts 188°
2026-04-21 07:42 52.86648 -2.90316 23404 ft 339 kts 191°
2026-04-21 07:42 52.84416 -2.90837 23403 ft 338 kts 193°
2026-04-21 07:42 52.82156 -2.91422 23403 ft 338 kts 193°
2026-04-21 07:43 52.79839 -2.92036 23402 ft 339 kts 193°
2026-04-21 07:43 52.77530 -2.92626 23402 ft 339 kts 193°
2026-04-21 07:43 52.75246 -2.93184 23401 ft 339 kts 193°
2026-04-21 07:43 52.72970 -2.93717 23400 ft 339 kts 192°
2026-04-21 07:44 52.70675 -2.94218 23400 ft 340 kts 191°
2026-04-21 07:44 52.68339 -2.94533 23400 ft 342 kts 188°
2026-04-21 07:44 52.66047 -2.94707 23400 ft 343 kts 187°
2026-04-21 07:44 52.63693 -2.94829 23400 ft 343 kts 186°
2026-04-21 07:45 52.61407 -2.94948 23400 ft 343 kts 187°
2026-04-21 07:45 52.59103 -2.95092 23398 ft 343 kts 187°
2026-04-21 07:45 52.56787 -2.95267 23396 ft 343 kts 188°
2026-04-21 07:45 52.54499 -2.95461 23394 ft 343 kts 188°
2026-04-21 07:46 52.52192 -2.95663 23393 ft 343 kts 188°
2026-04-21 07:46 52.49863 -2.95868 23391 ft 343 kts 188°
2026-04-21 07:46 52.47550 -2.96064 23390 ft 343 kts 188°
2026-04-21 07:46 52.45225 -2.96258 23389 ft 343 kts 188°
2026-04-21 07:47 52.42896 -2.96450 23387 ft 344 kts 188°
2026-04-21 07:47 52.40556 -2.96639 23385 ft 344 kts 188°
2026-04-21 07:47 52.38250 -2.96829 23384 ft 344 kts 188°
2026-04-21 07:47 52.35962 -2.97017 23382 ft 344 kts 188°
2026-04-21 07:48 52.33668 -2.97202 23380 ft 344 kts 188°
2026-04-21 07:48 52.31310 -2.97395 23378 ft 344 kts 188°
2026-04-21 07:48 52.28980 -2.97589 23376 ft 344 kts 188°
2026-04-21 07:48 52.26656 -2.97777 23375 ft 344 kts 188°
2026-04-21 07:49 52.24360 -2.97963 23373 ft 344 kts 188°
2026-04-21 07:49 52.22078 -2.98151 23371 ft 344 kts 188°
2026-04-21 07:49 52.19758 -2.98343 23369 ft 345 kts 188°
2026-04-21 07:49 52.17453 -2.98527 23367 ft 345 kts 188°
2026-04-21 07:50 52.15130 -2.98713 23364 ft 345 kts 188°
2026-04-21 07:50 52.12837 -2.98901 23361 ft 345 kts 189°
2026-04-21 07:50 52.10480 -2.99096 23359 ft 345 kts 189°
2026-04-21 07:50 52.08116 -2.99290 23356 ft 345 kts 189°
2026-04-21 07:51 52.05869 -2.99467 23354 ft 345 kts 189°
2026-04-21 07:51 52.03520 -2.99653 23352 ft 345 kts 189°
2026-04-21 07:51 52.01175 -2.99843 23350 ft 345 kts 189°
2026-04-21 07:51 51.98894 -3.00032 23347 ft 345 kts 189°
2026-04-21 07:52 51.96546 -3.00194 23345 ft 346 kts 189°
2026-04-21 07:52 51.94083 -3.00356 23343 ft 346 kts 189°
2026-04-21 07:52 51.91829 -3.00538 23341 ft 346 kts 190°
2026-04-21 07:52 51.89449 -3.00753 23339 ft 346 kts 190°
2026-04-21 07:53 51.87176 -3.00983 23336 ft 345 kts 191°
2026-04-21 07:53 51.84984 -3.01342 23334 ft 343 kts 194°
2026-04-21 07:53 51.83453 -3.01665 23333 ft 342 kts 195°
2026-04-21 07:53 51.82377 -3.01903 23333 ft 342 kts 195°
2026-04-21 07:54 51.80110 -3.02450 23332 ft 342 kts 196°
2026-04-21 07:54 51.77819 -3.03000 23331 ft 342 kts 195°
2026-04-21 07:54 51.75507 -3.03533 23330 ft 343 kts 195°
2026-04-21 07:54 51.73273 -3.04021 23318 ft 341 kts 195°
2026-04-21 07:55 51.71005 -3.04486 23320 ft 333 kts 195°
2026-04-21 07:55 51.68769 -3.04926 23320 ft 327 kts 195°
2026-04-21 07:55 51.66581 -3.05360 23320 ft 320 kts 195°
2026-04-21 07:55 51.64439 -3.05798 23144 ft 323 kts 195°
2026-04-21 07:56 51.62249 -3.06269 22675 ft 325 kts 195°
2026-04-21 07:56 51.60075 -3.06742 22236 ft 325 kts 195°
2026-04-21 07:56 51.57894 -3.07224 21793 ft 325 kts 194°
2026-04-21 07:56 51.55722 -3.07697 21352 ft 326 kts 194°
2026-04-21 07:57 51.53579 -3.08151 20893 ft 327 kts 193°
2026-04-21 07:57 51.51419 -3.08600 20357 ft 330 kts 193°
2026-04-21 07:57 51.49165 -3.09067 19827 ft 332 kts 192°
2026-04-21 07:57 51.47541 -3.09402 19463 ft 333 kts 192°
2026-04-21 07:58 51.46287 -3.09662 19187 ft 334 kts 192°
2026-04-21 07:58 51.44138 -3.10093 18730 ft 334 kts 192°
2026-04-21 07:58 51.41906 -3.10550 18263 ft 333 kts 191°
2026-04-21 07:58 51.39702 -3.11014 17820 ft 332 kts 193°
2026-04-21 07:59 51.37546 -3.11952 17406 ft 324 kts 207°
2026-04-21 07:59 51.35700 -3.13602 16984 ft 318 kts 218°
2026-04-21 07:59 51.34002 -3.15627 16551 ft 315 kts 221°
2026-04-21 07:59 51.32351 -3.17719 16122 ft 312 kts 221°
2026-04-21 08:00 51.30732 -3.19795 15700 ft 310 kts 221°
2026-04-21 08:00 51.29126 -3.21853 15282 ft 308 kts 221°
2026-04-21 08:00 51.27484 -3.23942 14855 ft 306 kts 221°
2026-04-21 08:00 51.25840 -3.26020 14429 ft 303 kts 221°
2026-04-21 08:01 51.24209 -3.28067 14008 ft 300 kts 220°
2026-04-21 08:01 51.22613 -3.30066 13596 ft 298 kts 220°
2026-04-21 08:01 51.21050 -3.32018 13192 ft 295 kts 220°
2026-04-21 08:02 51.17911 -3.35704 12427 ft 290 kts 208°
2026-04-21 08:02 51.16112 -3.36619 12057 ft 290 kts 191°
2026-04-21 08:02 51.14749 -3.36871 11778 ft 289 kts 186°
2026-04-21 08:02 51.12195 -3.37135 11254 ft 286 kts 185°
2026-04-21 08:03 51.10284 -3.37375 10861 ft 284 kts 185°
2026-04-21 08:03 51.08382 -3.37663 10470 ft 283 kts 186°
2026-04-21 08:03 51.06505 -3.37980 10083 ft 281 kts 186°
2026-04-21 08:03 51.05276 -3.38200 9830 ft 279 kts 186°
2026-04-21 08:04 51.03389 -3.38551 9440 ft 277 kts 185°
2026-04-21 08:04 51.01466 -3.38908 9044 ft 275 kts 185°
2026-04-21 08:04 50.99613 -3.39242 8663 ft 273 kts 184°
2026-04-21 08:04 50.97782 -3.39557 8287 ft 271 kts 184°
2026-04-21 08:05 50.95937 -3.39862 7908 ft 268 kts 183°
2026-04-21 08:05 50.94086 -3.40166 7527 ft 266 kts 183°
2026-04-21 08:05 50.92275 -3.40469 7151 ft 256 kts 183°
2026-04-21 08:05 50.90587 -3.40759 6800 ft 243 kts 182°
2026-04-21 08:06 50.88964 -3.41043 6464 ft 231 kts 182°
2026-04-21 08:06 50.87422 -3.41315 6144 ft 219 kts 182°
2026-04-21 08:06 50.85984 -3.41935 5793 ft 218 kts 207°
2026-04-21 08:06 50.84949 -3.43714 5348 ft 222 kts 243°
2026-04-21 08:07 50.84616 -3.46081 4902 ft 221 kts 268°
2026-04-21 08:07 50.84623 -3.48483 4478 ft 219 kts 272°
2026-04-21 08:07 50.84668 -3.50867 4077 ft 217 kts 272°
2026-04-21 08:07 50.84713 -3.53207 3660 ft 219 kts 272°
2026-04-21 08:08 50.84763 -3.55672 3213 ft 228 kts 272°
2026-04-21 08:08 50.84816 -3.58208 2775 ft 234 kts 272°
2026-04-21 08:08 50.84869 -3.60770 2492 ft 231 kts 272°
2026-04-21 08:08 50.84919 -3.63333 2321 ft 230 kts 272°
2026-04-21 08:09 50.84969 -3.65814 2254 ft 228 kts 272°
2026-04-21 08:09 50.85021 -3.68334 2214 ft 225 kts 272°
2026-04-21 08:09 50.85073 -3.70943 2201 ft 224 kts 272°
2026-04-21 08:09 50.84785 -3.73217 2190 ft 219 kts 240°
2026-04-21 08:10 50.83782 -3.74920 2191 ft 206 kts 204°
2026-04-21 08:10 50.82453 -3.75415 2195 ft 192 kts 169°
2026-04-21 08:10 50.81223 -3.74980 2197 ft 186 kts 154°
2026-04-21 08:10 50.80061 -3.74274 2195 ft 185 kts 151°
2026-04-21 08:11 50.78873 -3.73487 2194 ft 184 kts 150°
2026-04-21 08:11 50.77718 -3.72696 2194 ft 184 kts 149°
2026-04-21 08:11 50.76547 -3.71879 2193 ft 183 kts 149°
2026-04-21 08:11 50.75406 -3.71006 2187 ft 177 kts 147°
2026-04-21 08:12 50.74379 -3.70175 2186 ft 170 kts 146°
2026-04-21 08:12 50.73333 -3.69313 2186 ft 165 kts 146°
2026-04-21 08:12 50.72320 -3.68485 2186 ft 159 kts 145°
2026-04-21 08:12 50.71332 -3.67683 2186 ft 155 kts 145°
2026-04-21 08:13 50.70488 -3.66711 2174 ft 139 kts 118°
2026-04-21 08:13 50.70247 -3.65290 2220 ft 128 kts 88°
2026-04-21 08:13 50.70349 -3.63911 2199 ft 122 kts 82°
2026-04-21 08:13 50.70477 -3.62611 2183 ft 114 kts 82°
2026-04-21 08:14 50.70595 -3.61388 2175 ft 106 kts 82°
2026-04-21 08:14 50.70717 -3.60197 2187 ft 106 kts 81°
2026-04-21 08:14 50.70848 -3.59019 2191 ft 108 kts 81°
2026-04-21 08:14 50.70993 -3.57826 2102 ft 115 kts 80°
2026-04-21 08:15 50.71158 -3.56518 1899 ft 127 kts 80°
2026-04-21 08:15 50.71335 -3.55178 1668 ft 121 kts 79°
2026-04-21 08:15 50.71507 -3.53936 1464 ft 106 kts 78°
2026-04-21 08:15 50.71658 -3.52756 1368 ft 111 kts 78°
2026-04-21 08:16 50.71822 -3.51521 1245 ft 119 kts 76°
2026-04-21 08:16 50.72022 -3.50221 1077 ft 125 kts 75°
2026-04-21 08:16 50.72228 -3.48956 882 ft 114 kts 75°
2026-04-21 08:16 50.72419 -3.47779 735 ft 105 kts 75°
2026-04-21 08:17 50.72598 -3.46640 641 ft 108 kts 76°
2026-04-21 08:17 50.72787 -3.45454 471 ft 114 kts 75°
2026-04-21 08:17 50.72983 -3.44224 317 ft 115 kts 75°
2026-04-21 08:17 50.73171 -3.43024 165 ft 112 kts 75°
2026-04-21 08:18 50.73332 -3.41993 108 ft 71 kts 76°
2026-04-21 08:18 50.73396 -3.41590 108 ft 9 kts 75°
2026-04-21 08:18 50.73400 -3.41565 108 ft 3 kts 76°
2026-04-21 08:18 50.73397 -3.41485 108 ft 9 kts 112°
2026-04-21 08:19 50.73375 -3.41415 108 ft 4 kts 119°
2026-04-21 08:19 50.73368 -3.41396 108 ft 2 kts 119°
2026-04-21 08:19 50.73352 -3.41351 108 ft 7 kts 120°
2026-04-21 08:19 50.73322 -3.41271 108 ft 9 kts 121°
2026-04-21 08:20 50.73291 -3.41190 108 ft 8 kts 121°
2026-04-21 08:20 50.73265 -3.41122 108 ft 6 kts 124°
2026-04-21 08:20 50.73226 -3.41122 108 ft 8 kts 234°
2026-04-21 08:20 50.73207 -3.41223 108 ft 10 kts 257°
2026-04-21 08:21 50.73201 -3.41329 108 ft 9 kts 271°
2026-04-21 08:21 50.73203 -3.41423 108 ft 8 kts 272°
2026-04-21 08:21 50.73205 -3.41505 108 ft 7 kts 271°
2026-04-21 08:21 50.73206 -3.41575 108 ft 7 kts 275°
2026-04-21 08:22 50.73216 -3.41658 108 ft 7 kts 281°
2026-04-21 08:22 50.73213 -3.41715 108 ft 4 kts 244°
2026-04-21 08:22 50.73204 -3.41744 108 ft 2 kts 242°
2026-04-21 08:22 50.73199 -3.41756 108 ft 0 kts 243°
2026-04-21 08:23 50.73195 -3.41771 108 ft 4 kts 240°
2026-04-21 08:23 50.73175 -3.41777 108 ft 2 kts 127°
2026-04-21 08:23 50.73165 -3.41757 108 ft 3 kts 129°
2026-04-21 08:23 50.73154 -3.41735 108 ft 0 kts 130°